Crane Lake, MN

4:11 PM CDT on August 19, 2017 (GMT -0500)
Crane Lake

Weather History for KCDD - January, 2013

Change the Weather History Date:

Friday, January 11, 2013

  Actual Average Record
Temperature  
Mean Temperature 32 °F -  
Max Temperature 33 °F 13 °F 37 °F (2006)
Min Temperature 30 °F 0 °F -27 °F (2015)
Degree Days  
Heating Degree Days 34    
Moisture  
Dew Point 32 °F    
Average Humidity 98    
Maximum Humidity 100    
Minimum Humidity 93    
Precipitation  
Precipitation 0.42 in - - ()
Sea Level Pressure  
Sea Level Pressure 29.51 in    
Wind  
Wind Speed 1 mph (SSE)    
Max Wind Speed 6 mph    
Max Gust Speed -    
Visibility 4 miles    
Events Fog , Rain    
Averages and records for this station are not official NWS values.
T = Trace of Precipitation, MM = Missing Value Source: NWS Daily Summary

Daily Weather History Graph

Daily Weather History Graph

Search for Another Location

Airport or City:

Trip Planner

Search our weather history database for the weather conditions in past years. The results will help you decide how hot, cold, wet, or windy it might be!

Date:

Astronomy

Jan. 11, 2013 Rise Set
Actual Time 7:58 AM CST 4:38 PM CST
Civil Twilight 7:22 AM CST 5:13 PM CST
Nautical Twilight 6:43 AM CST 5:53 PM CST
Astronomical Twilight 6:05 AM CST 6:30 PM CST
Moon 7:27 AM CST (1/11) 5:01 PM CST (1/11)
Length of Visible Light 9h 51m
Length of Day
8h 40m
Waning Crescent, 0% of the Moon is Illuminated
Jan 11
Waning Crescent
Jan 11
New
Jan 18
First Quarter
Jan 26
Full
Feb 3
Last Quarter

Hourly Weather History & Observations

Time (CST) Temp. Windchill Dew Point Humidity Pressure Visibility Wind Dir Wind Speed Gust Speed Precip Events Conditions
12:15 AM 32.0 °F - 30.2 °F 93% 29.69 in 5.0 mi Calm Calm - 0.01 in   Overcast
12:35 AM 32.0 °F 26.4 °F 30.2 °F 93% 29.68 in 5.0 mi SSE 5.8 mph - 0.02 in   Overcast
12:55 AM 32.0 °F 27.5 °F 30.2 °F 93% 29.68 in 3.0 mi SE 4.6 mph - 0.03 in   Overcast
1:15 AM 32.0 °F 28.7 °F 30.2 °F 93% 29.66 in 7.0 mi SSE 3.5 mph - 0.01 in   Overcast
1:35 AM 32.0 °F 28.7 °F 30.2 °F 93% 29.65 in 10.0 mi SE 3.5 mph - 0.01 in   Overcast
1:55 AM 32.0 °F 28.7 °F 30.2 °F 93% 29.65 in 4.0 mi SE 3.5 mph - 0.03 in   Overcast
2:15 AM 32.0 °F 27.5 °F 30.2 °F 93% 29.65 in 4.0 mi SE 4.6 mph - N/A   Overcast
2:35 AM 32.0 °F 27.5 °F 30.2 °F 93% 29.64 in 2.0 mi SSE 4.6 mph - 0.02 in   Overcast
2:55 AM 32.0 °F 27.5 °F 30.2 °F 93% 29.64 in 1.8 mi SSE 4.6 mph - 0.02 in   Overcast
3:15 AM 32.0 °F 28.7 °F 30.2 °F 93% 29.63 in 1.8 mi South 3.5 mph - 0.01 in   Overcast
3:36 AM 32.0 °F - 30.2 °F 93% 29.62 in 2.5 mi Calm Calm - 0.01 in   Overcast
3:55 AM 32.0 °F - 30.2 °F 93% 29.61 in 3.0 mi Calm Calm - 0.02 in   Overcast
4:15 AM 32.0 °F - 30.2 °F 93% 29.62 in 10.0 mi Calm Calm - N/A   Overcast
4:35 AM 30.2 °F - 30.2 °F 100% 29.60 in 1.8 mi Calm Calm - N/A   Overcast
4:55 AM 30.2 °F - 30.2 °F 100% 29.59 in 1.5 mi Calm Calm - N/A   Overcast
5:15 AM 30.2 °F - 30.2 °F 100% 29.58 in 1.5 mi Calm Calm - N/A   Overcast
5:55 AM 30.2 °F - 30.2 °F 100% 29.58 in 7.0 mi Calm Calm - N/A   Overcast
6:15 AM 30.2 °F - 30.2 °F 100% 29.57 in 5.0 mi Calm Calm - N/A   Overcast
6:35 AM 30.2 °F - 30.2 °F 100% 29.57 in 10.0 mi Calm Calm - N/A   Overcast
6:55 AM 30.2 °F - 30.2 °F 100% 29.57 in 7.0 mi Calm Calm - N/A   Light Freezing Rain
7:15 AM 30.2 °F - 30.2 °F 100% 29.56 in 1.5 mi Calm Calm - N/A Rain Light Freezing Rain
7:35 AM 30.2 °F - 30.2 °F 100% 29.56 in 2.5 mi Calm Calm - 0.02 in Rain Light Freezing Rain
7:55 AM 30.2 °F - 30.2 °F 100% 29.56 in 2.0 mi Calm Calm - 0.05 in Rain Light Freezing Rain
8:15 AM 30.2 °F - 30.2 °F 100% 29.55 in 7.0 mi Calm Calm - 0.01 in   Overcast
8:35 AM 30.2 °F - 30.2 °F 100% 29.55 in 5.0 mi Calm Calm - 0.01 in   Overcast
8:55 AM 30.2 °F - 30.2 °F 100% 29.55 in 4.0 mi Calm Calm - 0.01 in   Light Freezing Rain
9:15 AM 30.2 °F - 30.2 °F 100% 29.55 in 4.0 mi Calm Calm - N/A Rain Light Freezing Rain
9:35 AM 30.2 °F - 30.2 °F 100% 29.55 in 2.0 mi Calm Calm - N/A Rain Light Freezing Rain
9:55 AM 32.0 °F - 32.0 °F 100% 29.55 in 3.0 mi Calm Calm - N/A   Light Drizzle
10:15 AM 33.8 °F - 32.0 °F 93% 29.55 in 10.0 mi Calm Calm - N/A   Overcast
10:35 AM 33.8 °F - 33.8 °F 100% 29.54 in 10.0 mi Calm Calm - N/A   Overcast
10:55 AM 33.8 °F - 33.8 °F 100% 29.54 in 10.0 mi Calm Calm - N/A   Overcast
11:35 AM 33.8 °F - 33.8 °F 100% 29.52 in 10.0 mi Calm Calm - N/A   Drizzle
11:55 AM 33.8 °F - 33.8 °F 100% 29.52 in 2.5 mi Calm Calm - 0.03 in Rain Rain
12:15 PM 33.8 °F - 33.8 °F 100% 29.51 in 2.0 mi Calm Calm - 0.03 in Rain Light Rain
12:35 PM 33.8 °F - 33.8 °F 100% 29.51 in 1.5 mi Calm Calm - 0.08 in Rain Rain
12:55 PM 33.8 °F - 33.8 °F 100% 29.48 in 1.2 mi Calm Calm - 0.10 in Rain Rain
1:15 PM 33.8 °F - 33.8 °F 100% 29.49 in 10.0 mi Calm Calm - 0.01 in   Overcast
1:35 PM 33.8 °F - 33.8 °F 100% 29.48 in 10.0 mi Calm Calm - 0.01 in   Overcast
1:55 PM 33.8 °F - 33.8 °F 100% 29.49 in 4.0 mi Calm Calm - 0.02 in Rain Light Rain
2:15 PM 33.8 °F - 33.8 °F 100% 29.49 in 7.0 mi Calm Calm - N/A   Overcast
2:35 PM 33.8 °F - 33.8 °F 100% 29.49 in 10.0 mi Calm Calm - N/A Rain Light Rain
2:55 PM 33.8 °F - 33.8 °F 100% 29.47 in 3.0 mi Calm Calm - 0.01 in Rain Light Rain
3:15 PM 33.8 °F - 33.8 °F 100% 29.48 in 1.2 mi Calm Calm - 0.02 in Rain Light Rain
3:35 PM 33.8 °F - 33.8 °F 100% 29.48 in 2.0 mi Calm Calm - 0.03 in   Drizzle
3:55 PM 33.8 °F - 33.8 °F 100% 29.48 in 7.0 mi Calm Calm - 0.03 in   Overcast
4:15 PM 33.8 °F - 33.8 °F 100% 29.47 in 1.0 mi Calm Calm - N/A   Overcast
4:35 PM 33.8 °F - 33.8 °F 100% 29.47 in 1.0 mi Calm Calm - N/A   Overcast
4:55 PM 33.8 °F - 32.0 °F 93% 29.47 in 0.8 mi Calm Calm - N/A   Overcast
5:15 PM 32.0 °F - 32.0 °F 100% 29.46 in 0.5 mi Calm Calm - N/A Fog Fog
5:35 PM 32.0 °F - 32.0 °F 100% 29.45 in 1.2 mi Calm Calm - N/A   Overcast
5:55 PM 32.0 °F - 32.0 °F 100% 29.44 in 1.8 mi Calm Calm - N/A   Overcast
6:15 PM 33.8 °F - 32.0 °F 93% 29.44 in 2.0 mi Calm Calm - N/A   Overcast
6:35 PM 33.8 °F - 32.0 °F 93% 29.44 in 1.8 mi Calm Calm - N/A   Overcast
6:55 PM 33.8 °F - 32.0 °F 93% 29.42 in 1.0 mi Calm Calm - N/A   Overcast
7:15 PM 33.8 °F - 32.0 °F 93% 29.44 in 1.0 mi Calm Calm - N/A   Overcast
7:35 PM 32.0 °F - 32.0 °F 100% 29.41 in 0.8 mi Calm Calm - 0.01 in   Drizzle
7:55 PM 33.8 °F - 32.0 °F 93% 29.39 in 1.0 mi Calm Calm - 0.01 in   Light Drizzle
8:15 PM 33.8 °F - 33.8 °F 100% 29.40 in 1.5 mi Calm Calm - N/A   Overcast
8:35 PM 33.8 °F - 33.8 °F 100% 29.39 in 0.8 mi Calm Calm - 0.01 in   Heavy Drizzle
8:55 PM 33.8 °F - 32.0 °F 93% 29.39 in 0.8 mi Calm Calm - 0.02 in   Heavy Drizzle
9:15 PM 32.0 °F - 32.0 °F 100% 29.38 in 0.5 mi Calm Calm - 0.02 in   Drizzle
9:35 PM 32.0 °F - 32.0 °F 100% 29.37 in 1.0 mi Calm Calm - 0.03 in   Drizzle
9:55 PM 32.0 °F - 32.0 °F 100% 29.37 in 1.0 mi Calm Calm - 0.03 in   Drizzle
10:15 PM 32.0 °F - 32.0 °F 100% 29.36 in 1.5 mi Calm Calm - N/A   Drizzle
10:35 PM 32.0 °F - 32.0 °F 100% 29.36 in 2.0 mi Calm Calm - 0.01 in Rain Rain
10:55 PM 32.0 °F - 32.0 °F 100% 29.35 in 0.8 mi Calm Calm - 0.01 in Rain Rain
11:15 PM 32.0 °F - 32.0 °F 100% 29.34 in 0.5 mi Calm Calm - N/A Fog Fog
11:35 PM 32.0 °F - 30.2 °F 93% 29.33 in 0.5 mi Calm Calm - N/A Rain Light Rain
11:55 PM 32.0 °F - 30.2 °F 93% 29.32 in 0.8 mi Calm Calm - N/A Rain Rain